User: anonymous   Login
Location: Unspecified
(0.0000°N, 0.0000°E)
Time: 17:30:31
(UTC+00:00)
Language:

S-56A Canister/Altair - Orbit

View from above orbital plane
View from above orbital plane
View from above satellite
View from above satellite

Ground track
Ground track

The orbit data is extracted from the following two-line orbital elements,

1 00082U 61004B   15185.73217039 -.00000031  00000-0  17224-4 0  9998
2 00082 038.8576 056.7762 1172127 352.0184 006.3229 12.25704188585712
Epoch (UTC): 04 July 2015 17:34:19
Eccentricity: 0.1172127
inclination: 38.8576°
perigee height: 636 km
apogee height: 2499 km
right ascension of ascending node: 56.7762°
argument of perigee: 352.0184°
revolutions per day: 12.25704188
mean anomaly at epoch: 6.3229°
orbit number at epoch: 58571

The dashed part of the orbit path shows where the satellite is in the earth's shadow,  

DLR